Back to catalog

STARLINK-30955

AliveCommunicationsVLEO
NORAD 58417·PAYLOAD·🇺🇸 United States

Launched Nov 22, 2023 from Cape Canaveral Space Force Station

Loading…

Next Passes (next 24 hours)

TLE

FreshSource: CelesTrak SupGP

Epoch: Sep 14, 2026, 14:41 UTC

1 58417C 23180R   26257.61229167 -.00055563  00000+0 -20134-2 0  2579
2 58417  43.0019  65.1885 0001489 268.8193 106.4227 15.27591530    17

Track STARLINK-30955 in real time with AllMySat

Download on the App Store